www.pogodaiklimat.ru

Погода и климат >> Архив погоды >> Украина >> Гайсин


ПОГОДА в Гайсине

  • Прогноз погоды в Гайсине
  • Монитор погоды в Гайсине
  • Климат города

АРХИВ ПОГОДЫ в Гайсине

Время (UTC), дата Ветер
(напр.,м/с)
 
Видим.   Явления Облачность Т
(С)
Тd
(С)
f
(%)
Тe
(С)
Тes
(С)
Комфортность P
(гПа)
Po
(гПа)
Тmin
(С)
Tmax
(С)
R
(мм)
R24
(мм)
S
(см)
15 17.11 ЮВ 1 10 км 10 баллов +3.1 -0.2 79 +2 +2 1025.0 998.6
18 17.11 ЮВ 1 10 км 10 баллов +2.8 +0.4 84 +1 +1 1024.0 997.6 +4.4
21 17.11 ЮВ 1 9000 м морось 10 баллов +2.5 +1.2 91 +1 +1 1024.0 997.6
00 18.11 ЮВ 1 6000 м морось 10 баллов +2.3 +1.4 94 +1 +1 1023.0 996.6 0.4
03 18.11 ЮВ 1 7000 м дымка 10 баллов +2.3 +1.1 92 +1 +1 1022.0 995.6
06 18.11 ЮВ 1 7000 м дымка 10 баллов +2.4 +1.4 93 +1 +1 1021.0 994.6 +2.2 0.4
09 18.11 ЮВ 1 10 км 10 баллов +3.3 +1.8 90 +2 +2 1021.0 994.7
12 18.11 ЮВ 1 10 км 10 баллов +4.2 +1.7 84 +3 +3 1018.0 991.9
15 18.11 ЮВ 1 8000 м дымка 10 баллов +4.2 +3.0 92 +3 +3 1017.0 990.9
18 18.11 ЮВ 1 8000 м дымка 10 баллов +4.4 +3.2 92 +3 +3 1016.0 990.0 +4.5 0.0
21 18.11 ЮВ 1 8000 м дымка 10 баллов +4.2 +3.0 92 +3 +3 1015.0 989.0
00 19.11 Ю 1 5000 м морось 10 баллов +3.8 +3.1 95 +2 +2 1013.0 987.0 0.4
03 19.11 Ю 1 3400 м дождь 10 баллов +3.5 +3.1 97 +2 +2 1012.0 986.0
06 19.11 ЮВ 1 3100 м дождь 10 баллов +3.7 +3.3 97 +2 +2 1011.0 985.0 +3.4 3
09 19.11 ЮЗ 1 3500 м дымка 10 баллов +5.0 +4.6 97 +4 +4 1011.0 985.1
12 19.11 ЮЗ 2 10 км дымка 10 баллов +5.1 +4.2 94 +2 +2 1011.0 985.2 0.6
15 19.11 З 2 10 км 10 баллов +4.5 +2.8 89 +2 +2 1011.0 985.1
18 19.11 З 2 5000 м дымка ясно +1.8 +0.9 94 -2 -2 1012.0 985.8 +5.3 0.9
21 19.11 штиль 0 5000 м дымка 10 баллов -0.4 -1.0 96 -2 -2 1012.0 985.6
00 20.11 ЮВ 1 800 м туман н/о -1.4 -1.4 100 -4 -4 1012.0 985.5
03 20.11 штиль 0 700 м туман н/о -2.0 -2.0 100 -3 -3 1012.0 985.4
06 20.11 штиль 0 600 м туман ясно -2.2 -2.2 100 -4 -4 1012.0 985.4 -2.4 +5.3 0.9
09 20.11 штиль 0 400 м туман н/о -1.2 -1.2 100 -3 +1 1012.0 985.5
12 20.11 ЮЗ 1 9000 м дымка 3 балла +3.2 +1.9 91 +2 +3 1011.0 985.0
15 20.11 З 1 9000 м дымка ясно +1.9 +0.6 91 0 0 1011.0 984.8
18 20.11 штиль 0 4000 м дымка ясно -0.5 -1.1 96 -2 -2 1012.0 985.6 +3.3
21 20.11 З 1 6000 м дымка ясно -0.1 -0.9 94 -2 -2 1012.0 985.6
00 21.11 З 1 8000 м дымка ясно +0.3 -0.8 92 1012.0 985.7
03 21.11 З 2 10 км 10 баллов +0.7 -0.7 90 -3 -3 1012.0 985.7
06 21.11 штиль 0 10 км 10 баллов +0.8 -1.3 86 -0 -0 1012.0 985.7 -0.5
09 21.11 З 2 10 км ясно +2.2 -1.2 78 -1 +1 1013.0 986.8
12 21.11 З 2 10 км 10 баллов +2.5 -1.8 73 -0 -0 1013.0 986.8
15 21.11 З 2 10 км в посл. час крупа 10 баллов +2.1 -1.0 80 -1 -1 1014.0 987.8
18 21.11 З 1 10 км 10 баллов +1.0 -1.6 83 -1 -1 1014.0 987.7 +2.6 0.5
21 21.11 штиль 0 8000 м дымка ясно -1.0 -2.1 92 -2 -2 1015.0 988.4
00 22.11 З 1 10 км 10 баллов +0.3 -1.5 88 -2 -2 1015.0 988.6
03 22.11 З 1 10 км 10 баллов 0.0 -1.7 88 -2 -2 1015.0 988.5
06 22.11 З 1 10 км 10 баллов -0.2 -1.6 90 -2 -2 1015.0 988.5 -1.1
09 22.11 З 2 10 км 10 баллов +0.9 -2.7 77 -2 -2 1016.0 989.6
12 22.11 З 1 10 км 10 баллов +2.1 -3.6 66 +1 +1 1016.0 989.7
15 22.11 СЗ 1 10 км 3 балла +0.2 -3.9 74 -2 -2 1017.0 990.5
18 22.11 штиль 0 10 км ясно -3.7 -5.5 87 -5 -5 1018.0 991.1 +2.3
21 22.11 штиль 0 7000 м дымка ясно -5.2 -6.2 93 -6 -6 1019.0 991.9
00 23.11 штиль 0 6000 м дымка 10 баллов -5.8 -6.5 95 -7 -7 1020.0 992.8
03 23.11 штиль 0 5000 м дымка 3 балла -7.0 -7.5 96 -8 -8 1022.0 994.7
06 23.11 штиль 0 7000 м дымка 10 баллов -7.6 -8.5 93 -8 -8 1023.0 995.6 -7.8
09 23.11 штиль 0 10 км 10 баллов -0.4 -3.1 82 -1 -1 1023.0 996.3
12 23.11 ЮЗ 1 10 км 10 баллов +3.4 -3.4 61 +2 +2 1023.0 996.7
15 23.11 штиль 0 10 км 6 баллов +0.2 -5.0 68 -1 -1 1023.0 996.3
18 23.11 штиль 0 10 км ясно -2.7 -4.3 89 -4 -4 1023.0 996.1 +3.5
21 23.11 В 1 6000 м дымка ясно -4.2 -5.2 93 -7 -7 1023.0 995.9
00 24.11 В 1 7000 м дымка ясно -5.0 -6.0 93 -7 -7 1024.0 996.8
03 24.11 В 1 7000 м дымка ясно -4.8 -5.8 93 -7 -7 1023.0 995.9
06 24.11 В 1 9000 м дымка 10 баллов -4.7 -5.9 91 -7 -7 1023.0 995.9 -5.1
09 24.11 ЮВ 2 10 км 10 баллов +0.1 -2.8 81 -3 -3 1024.0 997.3
12 24.11 ЮВ 2 10 км 10 баллов +2.2 -2.1 73 -1 -1 1024.0 997.5

 

Местоположение метеостанции Гайсин (Винницкая область, Украина): широта 48.80 долгота 29.40 высота над уровнем моря 211 м.

В архиве по умолчанию представлена погода в Гайсине за последнюю неделю. Архивные данные за месяц целиком и за предыдущие месяцы, начиная с января 2011 года, Вы можете получить, выбрав интересующий диапазон дат из раскрывающегося списка и нажав кнопку "Ввод!".

Внимание! Время в таблицах - всемирное. Для получения местного времени необходимо прибавить поправку, которая в Гайсине равна 2 ч.

Смотрите также архив погоды в соседних городах и на ближайших метеорологических станциях:

Погода в Гайвороне (Кировоградская область, Украина) (61 км)
Погода в Умани (Черкасская область, Украина) (61 км)
Погода в Жашкове (Черкасская область, Украина) (71 км)
Погода в Виннице (Винницкая область, Украина) (75 км)
Погода в Жмеринке (Винницкая область, Украина) (99 км)
Погода в Каменке (Молдова) (100 км)
Погода в Сороках (Молдова) (105 км)
Погода в Звенигородке (Черкасская область, Украина) (114 км)
Погода в Белой Церкви (Киевская область, Украина) (118 км)
Погода в Рыбнице (Молдова) (118 км)

Пояснения к столбцам:

Ветер - указаны скорость ветра в м/с - средняя за 10 мин, порывы в срок и между сроками (в фигурных скобках) и направление, откуда дует ветер: С - северный, СВ - северо-восточный, В - восточный, ЮВ - юго-восточный, Ю - южный, ЮЗ - юго-западный, З - западный, СЗ - северо-западный.
Видимость - горизонтальная дальность видимости в метрах или километрах. При видимости от 1 до 10 км при отсутствии осадков обычно наблюдается дымка, при ухудшении видимости до 1 км и менее - туман. В сухую погоду видимость может ухудшаться дымом, пылью или мглою.
Явления - указаны атмосферные явления, наблюдавшиеся в срок или в последний час перед сроком; фигурными скобками обозначены явления, наблюдавшиеся между сроками (за 1-3 часа до срока); квадратными скобками обозначены град или гололедные отложения с указанием их диаметра в мм.
Облачность - указаны через наклонную черту общая и нижняя облачность в баллах и высота нижней границы облаков в метрах; квадратными скобками обозначены формы облаков: Ci - перистые, Cs - перисто-слоистые, Cc - перисто-кучевые, Ac - высококучевые, As - высокослоистые, Sc - слоисто-кучевые, Ns - слоисто-дождевые, Cu - кучевые, Cb - кучево-дождевые. Подробнее классификацию облаков см. в Атласе облаков (PDF).
T - Температура воздуха - температура, измеренная на высоте 2 м над землей.
Td - Температура точки росы - температура, при понижении до которой содержащийся в воздухе водяной пар достигнет насыщения.
f - Относительная влажность воздуха - влажноcть воздуха, измеренная на высоте 2 м над землей.
Te - Эффективная температура - температура, которую ощущает одетый по сезону человек в тени. Характеристика душности погоды. При расчете учитывается влияние влажности воздуха и скорости ветра на теплоощущения человека.
Tes - Эффективная температура на солнце - температура, которую ощущает человек, с поправкой на солнечный нагрев. Характеристика знойности погоды. Зависит от высоты солнца над горизонтом, облачности и скорости ветра. Ночью, в пасмурную погоду, а также при ветре 12 м/с и более поправка равна нулю.
P - Атмосферное давление - приведенное к уровню моря атмосферное давление.
Po - Атмосферное давление - измеренное на уровне метеостанции атмосферное давление.
Tmin - Минимальная температура - минимум температуры воздуха на высоте 2 м над землей.
Tmax - Максимальная температура - максимум температуры воздуха на высоте 2 м над землей.
R - Количество осадков - Количество выпавших осадков за период времени, мм. При наведении курсора мыши на число - период времени, за который выпало указанное количество осадков.
R24 - Количество осадков - Количество выпавших осадков за 24 часа, мм.
S - Снежный покров - Высота снежного покрова, см. При наведении курсора мыши на число - состояние снежного покрова и степень покрытия местности в баллах.